Regional Weather Roundup
Issued by NWS

Home | Current Version | Previous Version | Graphics & Text | Print | Product List | Glossary On
Versions: 1 2 3 4 5 6 7 8 9 10 11 12 13 14 15 16 17 18 19 20 21 22 23 24 25 26 27 28 29 30 31 32 33 34 35 36 37 38 39 40 41 42 43 44 45 46 47 48 49 50
000
ASUS43 KOAX 201502
RWRNE

WEATHER ROUNDUP FOR NEBRASKA
NATIONAL WEATHER SERVICE OMAHA NE
1000 AM CDT SUN AUG 20 2017

NOTES: SATELLITE DATA IS BEING USED TO AUGMENT CLOUD COVER ABOVE
       12000 FEET.
       "FAIR" INDICATES FEW OR NO CLOUDS BELOW 12,000 FEET WITH NO
       SIGNIFICANT WEATHER AND/OR OBSTRUCTIONS TO VISIBILITY.


NEZ001>004-019>022-054>056-201600-
NEBRASKA PANHANDLE

CITY           SKY/WX    TMP DP  RH WIND       PRES   REMARKS
SCOTTSBLUFF    CLOUDY    68  56  65 E8        30.09R
ALLIANCE       SUNNY     71  56  58 E15       30.06R
CHADRON        SUNNY     68  50  52 N8        30.09R
GORDON         FAIR      71  54  54 E14       30.05R
KIMBALL        CLOUDY    63  46  52 N10       30.12R
SIDNEY         MOSUNNY   66  51  58 N9        30.08R
$$

NEZ057>060-069>072-079>082-201600-
SOUTHWEST NEBRASKA

CITY           SKY/WX    TMP DP  RH WIND       PRES   REMARKS
NORTH PLATTE   SUNNY     75  65  70 E9        29.94S
IMPERIAL       MOSUNNY   74  62  66 N15       29.96S
LEXINGTON      MOSUNNY   72  66  83 E5        29.94S
MCCOOK         SUNNY     74  59  59 NE3       29.94R
OGALLALA       SUNNY     73  61  65 NE16      29.98S
$$

NEZ005>010-023>029-035>040-094-201600-
NORTH CENTRAL NEBRASKA

CITY           SKY/WX    TMP DP  RH WIND       PRES   REMARKS
VALENTINE      SUNNY     76  57  51 NE18      30.01S
AINSWORTH      SUNNY     73  65  78 E6        30.01R
BROKEN BOW     SUNNY     71  63  75 SE6       29.94F
O`NEILL        SUNNY     75  59  58 CALM      29.99R
ORD            SUNNY     71  61  70 SE8       29.94R
THEDFORD       SUNNY     73  64  73 NE14      30.00R
$$

NEZ041-046>049-061>064-073>077-083>087-201600-
SOUTH CENTRAL NEBRASKA

CITY           SKY/WX    TMP DP  RH WIND       PRES   REMARKS
GRAND ISLAND   CLOUDY    74  67  78 E5        29.94R
AURORA         MOSUNNY   76  66  71 S10G16    29.95R
HASTINGS       SUNNY     74  65  73 S8        29.94R
HEBRON         SUNNY     79  67  66 S15G25    29.92S
HOLDREGE       SUNNY     74  67  78 SE7       29.93R
KEARNEY        SUNNY     72  66  81 SE10      29.94R
$$

NEZ011>018-030>034-042>045-201600-
NORTHEAST NEBRASKA

CITY           SKY/WX    TMP DP  RH WIND       PRES   REMARKS
NORFOLK        SUNNY     74  60  61 N5        29.96R
ALBION         SUNNY     76  65  69 NE3       29.97R
BLAIR          RAIN      72  67  84 E6        29.96R
COLUMBUS       SUNNY     73  65  75 N9        29.97R
FREMONT        CLOUDY    73  64  72 W3        29.97R
TEKAMAH        PTSUNNY   74  66  76 E5        29.97R
WAYNE          SUNNY     74  65  75 E6        29.96R
$$

NEZ050>053-065>068-078-088>093-201600-
SOUTHEAST NEBRASKA

CITY           SKY/WX    TMP DP  RH WIND       PRES   REMARKS
LINCOLN        PTSUNNY   74  66  76 SE12      29.95R
OMAHA EPPLEY   CLOUDY    71  64  78 E9        29.94R THUNDER
BEATRICE       SUNNY     78  64  61 S15       29.92S
FALLS CITY     SUNNY     77  66  68 S15       29.94R
NEBRASKA CITY  CLOUDY    70  70 100 CALM      29.96R
PLATTSMOUTH    LGT RAIN  67  65  92 SE8       29.96R
$$

NEZ044-045-051>053-067-201600-
OMAHA AREA

CITY           SKY/WX    TMP DP  RH WIND       PRES   REMARKS
OMAHA EPPLEY   CLOUDY    71  64  78 E9        29.94R THUNDER
BLAIR          RAIN      72  67  84 E6        29.96R
FREMONT        CLOUDY    73  64  72 W3        29.97R
MILLARD        CLOUDY    71  65  83 SE6       29.94R
OFFUTT AFB     LGT RAIN  69  63  83 SE3       29.93S
PLATTSMOUTH    LGT RAIN  67  65  92 SE8       29.96R
WAHOO          FAIR      73  65  76 S3        29.95R
$$



USA.gov is the U.S. government's official web portal to all federal, state and local government web resources and services.